Aeroporto :
LOGIN :

Iscrizione | Disclaimer

   EN    FR    IT 

 










Sommario :    VFR   VFR Marginale   IFR   IFR Intensivo   IFR Molto Intensivo
Visibilità : 
Base nubi : 
>= 8 km
>= 3000ft
5 / 8 km
1000 / 3000 ft
1500m / 5 km
500 / 1000 ft
800 / 1500m
200 / 500 ft
< 800m
< 200 ft
Simboli :   Temporali  Nebbia  Neve Forte  Precipitazioni Forti  Vento > 20 kt
SIGMETs :   Varie  Temporali  Ghiacco  Turbolenza  Onda orograficha  Ceneri Vulcaniche







- Altitudine del aeroporto : 1947 ft
- Codice IATA : OBF


EDMO - Oberpfaffenhofen

ULTIMO METAR :
  • 161650Z 29006KT 250V330 CAVOK 23/10 Q1016

METARs OBSOLETI :
  • 161620Z 28007KT 250V310 9999 FEW058 23/11 Q1016
  • 161550Z 28007KT 240V350 CAVOK 23/10 Q1016
  • 161520Z 29008KT 260V010 9999 FEW059 23/09 Q1017
  • 161450Z 27008KT 220V340 9999 FEW056 23/10 Q1017
  • 161420Z 28008KT 220V310 9999 FEW050 23/12 Q1017
  • 161350Z 27008KT 240V330 9999 FEW051 22/11 Q1017

TAF TAF EDMO
Valido dal 16 a 15 ore il 17 a 00 ore UTC


161400Z 1615/1624 30006KT 9999 FEW050
BECMG 1617/1619 VRB02KT
Nessun NOTAM noto per questo aeroporto.



MetMap, La meteo Aeronautica in un colpo d'occhio ! - Copyright ORBIFLY Dicembre 2007 - Disclaimer

ORBIFLY MET'MAP TEAM :

Programmazione e sviluppo : Alexandra Zaïnal
Concezione e sviluppo : Baudouin d'Aumeries
Co-Programmazione e sviluppo : Marc-Olivier Méhu
Supporto tecnico e logistico : Manuel Goepfert
Aiuto per la traduzione : Arnaldo La Scala

Contatto : metmap@orbifly.com




FONTI E CREDITI :

   NOAA